This is the latest recevied weather packets stored in our database for station/object OE6JUE. If no packets are shown the sender has not sent any weather packets the latest 10 day(s).
| Time | Temp. | Humidity | Pressure | Rain* | Wind** | Luminosity | Snow |
|---|---|---|---|---|---|---|---|
| 1777366357 | 17.78° C | 40% | 1020.8 hPa | 0 mm | - | - | - |
| 1777366056 | 17.22° C | 40% | 1020.7 hPa | 0 mm | - | - | - |
| 1777365756 | 17.22° C | 40% | 1020.7 hPa | 0 mm | - | - | - |
| 1777365456 | 18.33° C | 37% | 1020.6 hPa | 0 mm | - | - | - |
| 1777365156 | 17.78° C | 38% | 1020.7 hPa | 0 mm | - | - | - |
| 1777364857 | 17.22° C | 41% | 1020.5 hPa | 0 mm | - | - | - |
| 1777364556 | 17.22° C | 41% | 1020.7 hPa | 0 mm | - | - | - |
| 1777364256 | 17.22° C | 42% | 1020.5 hPa | 0 mm | - | - | - |
| 1777363957 | 16.11° C | 43% | 1020.7 hPa | 0 mm | - | - | - |
| 1777363656 | 15.56° C | 42% | 1020.7 hPa | 0 mm | - | - | - |
| 1777363357 | 16.11° C | 41% | 1020.7 hPa | - | - | - | - |
| 1777363056 | 15.56° C | 42% | 1020.7 hPa | 0 mm | - | - | - |
| 1777362756 | 15.56° C | 42% | 1020.8 hPa | 0 mm | - | - | - |
| 1777362456 | 16.11° C | 40% | 1020.8 hPa | 0 mm | - | - | - |
| 1777362157 | 16.67° C | 40% | 1020.8 hPa | 0 mm | - | - | - |
| 1777361856 | 16.67° C | 38% | 1020.7 hPa | 0 mm | - | - | - |
| 1777361556 | 16.67° C | 38% | 1020.7 hPa | 0 mm | - | - | - |
| 1777361257 | 16.67° C | 41% | 1020.7 hPa | 0 mm | - | - | - |
| 1777360957 | 16.11° C | 42% | 1020.6 hPa | 0 mm | - | - | - |
| 1777360656 | 16.11° C | 41% | 1020.6 hPa | 0 mm | - | - | - |
| 1777360357 | 16.11° C | 42% | 1020.7 hPa | 0 mm | - | - | - |
| 1777360056 | 16.67° C | 42% | 1020.6 hPa | 0 mm | - | - | - |
| 1777359756 | 16.67° C | 42% | 1020.8 hPa | - | - | - | - |
| 1777359456 | 16.67° C | 50% | 1020.7 hPa | 0 mm | - | - | - |
| 1777359157 | 16.11° C | 51% | 1020.5 hPa | 0 mm | - | - | - |
* Rain latest hour (hover to see other rain measurements)
** Current wind speed in m/s (hover to see current wind gust speed)